RH
27 27 28 30 31 31 31 32 34 33 32 32 33 33 33 37 44 48 49 48 49 51 50 47 43 44 50 56 60 63 60 55 59 63 62 60 58 62 72 76 75 73
31 30 31 32 32 31 30 32 34 32 32 34 36 36 36 40 45 49 49 48 49 51 48 43 41 43 49 53 54 55 54 54 60 65 63 61 61 63 70 74 73 69
33 33 34 35 35 32 31 32 34 34 33 36 38 39 41 44 47 49 49 48 48 48 46 43 43 45 48 51 51 51 53 54 56 61 61 60 62 64 68 73 73 68
34 36 36 37 36 34 31 32 35 35 36 37 38 41 45 46 47 49 49 48 47 46 46 44 45 46 47 49 50 50 52 53 53 56 56 57 60 65 68 72 74 69
34 35 36 36 36 33 31 32 34 36 37 37 38 42 46 48 49 49 49 49 47 46 46 46 45 46 46 48 50 51 52 53 54 53 53 54 58 62 66 69 69 66
30 31 32 33 33 32 31 32 34 34 35 36 39 44 47 47 49 49 48 49 47 46 47 47 46 46 46 47 50 52 53 55 55 53 52 53 55 58 62 65 66 65
28 28 29 31 32 32 32 33 33 33 34 36 39 43 44 44 44 45 44 45 45 45 46 45 44 44 44 45 47 49 51 54 55 54 54 54 54 55 57 61 65 66
27 28 29 31 32 33 34 35 34 33 34 36 39 42 43 42 41 41 41 41 42 42 42 40 38 38 40 43 46 48 49 54 57 55 55 53 52 53 54 57 64 67
29 30 30 31 33 34 35 35 36 36 36 38 40 43 43 42 41 40 39 38 39 38 37 35 33 34 37 42 47 49 50 52 54 53 53 53 49 50 52 55 61 64
31 33 32 32 33 34 36 37 39 40 40 41 43 44 44 41 40 40 40 40 40 39 37 34 34 34 36 41 47 49 49 48 47 47 49 51 50 49 51 54 59 62
32 34 34 34 34 35 36 38 41 43 43 44 45 47 47 44 43 44 45 45 44 43 40 37 35 34 34 38 42 45 46 44 42 42 45 48 52 52 50 51 57 61
34 35 35 34 35 36 38 40 44 47 48 48 48 49 51 50 47 47 48 49 49 47 44 40 37 34 32 33 37 42 44 43 40 39 41 44 50 53 51 49 54 60
35 36 35 34 35 37 41 45 47 49 51 52 51 50 52 52 49 49 51 53 53 52 51 48 44 40 35 32 35 39 43 43 40 38 37 38 44 50 52 50 52 58
34 35 35 36 36 38 42 45 48 49 50 52 53 52 53 54 52 52 53 54 55 55 55 54 52 49 43 38 38 41 44 44 41 38 35 35 40 49 54 54 54 58
33 34 35 37 38 39 41 44 47 50 50 52 54 54 55 57 56 55 54 54 55 57 57 57 56 55 50 47 47 46 46 45 41 36 35 36 43 51 55 57 60 61
34 35 36 37 38 40 42 45 47 50 52 52 53 54 56 57 57 56 57 57 56 58 60 58 57 58 55 54 56 53 50 48 42 37 39 43 48 54 57 60 65 68
36 36 37 38 40 41 43 46 48 50 52 53 54 54 54 55 57 58 59 57 55 56 58 56 56 58 56 55 58 58 53 50 45 44 49 51 55 59 61 64 70 72
37 37 39 40 41 42 44 47 49 51 53 54 54 53 54 57 60 60 57 54 53 54 55 54 52 54 53 53 55 54 50 45 45 52 59 60 62 64 63 70 78 75
37 38 40 42 43 44 46 48 51 52 52 54 54 55 58 59 60 59 57 56 54 54 54 53 51 50 50 52 52 49 48 47 49 57 62 62 63 64 66 76 81 73
38 39 41 43 44 45 48 50 51 53 54 55 56 58 58 59 60 60 61 60 57 55 53 52 52 49 48 51 51 47 47 49 54 59 62 61 63 65 69 77 77 70
39 40 41 43 44 46 50 51 52 54 56 58 59 58 58 60 62 62 63 62 59 56 53 52 52 50 47 49 51 47 45 49 57 60 61 61 64 66 70 77 77 73
40 40 41 43 46 48 50 52 54 56 59 60 59 59 60 62 64 64 64 63 60 56 53 52 52 51 50 50 50 47 45 50 56 58 60 63 66 67 70 75 76 74
42 42 43 46 48 50 51 53 57 58 59 59 60 61 63 64 65 65 64 62 60 57 54 53 52 51 51 52 51 46 45 50 53 54 59 63 65 66 70 72 72 71
45 45 47 49 50 50 52 56 58 58 58 60 62 63 64 65 65 65 63 61 61 59 56 53 51 50 50 50 49 45 45 50 53 53 56 62 64 65 67 70 72 71
48 49 51 51 50 51 54 57 57 57 59 61 64 65 66 66 66 66 63 62 60 59 57 54 52 51 50 50 50 49 48 51 54 54 56 61 65 64 65 68 69 68
51 52 50 50 52 54 57 57 54 54 57 61 64 66 67 66 66 66 64 62 60 58 58 56 54 53 53 53 53 52 51 53 56 57 59 63 65 63 64 67 67 65